User: anonymous   Login
Location: ??????
(55.4348°N, 39.2112°E)
Time: 03:42:34
(UTC+00:00)
Language:

CZ-2C R/B - Orbit

View from above orbital plane
View from above orbital plane
View from above satellite
View from above satellite

Ground track
Ground track

The orbit data is extracted from the following two-line orbital elements,

1 28480U 04046B   24174.42017038  .00000157  00000-0  74195-4 0  9992
2 28480  98.1626 118.2926 0140031 203.4077 156.0690 14.26386706 19344
Epoch (UTC): 22 June 2024 10:05:02
Eccentricity: 0.0140031
inclination: 98.1626°
perigee height: 703 km
apogee height: 904 km
right ascension of ascending node: 118.2926°
argument of perigee: 203.4077°
revolutions per day: 14.26386706
mean anomaly at epoch: 156.0690°
orbit number at epoch: 1934

The dashed part of the orbit path shows where the satellite is in the earth's shadow,  

DLR